Regional Weather Roundup
Issued by NWS

Home | Current Version | Previous Version | Graphics & Text | Print | Product List | Glossary Off
Versions: 1 2 3 4 5 6 7 8 9 10 11 12 13 14 15 16 17 18 19 20 21 22 23 24 25 26 27 28 29 30 31 32 33 34 35 36 37 38 39 40 41 42 43 44 45 46 47 48 49 50

000
ASUS45 KSLC 010410
RWRUT

UTAH REGIONAL WEATHER ROUNDUP
NATIONAL WEATHER SERVICE SALT LAKE CITY UT
1000 PM MDT TUE SEP 30 2014

UTZ001>011-023>025-010500-

NORTHERN UTAH

CITY           SKY/WX    TMP DP  RH WIND       PRES   REMARKS
HILL AFB       CLEAR     48  46  93 SE8       29.96R
LOGAN          NOT AVBL
OGDEN          PTCLDY    49  47  93 S5        29.95R
PROVO AIRPORT  CLOUDY    54  45  71 N7        29.94F
SALT LAKE CITY MOCLDY    53  48  83 SE6       29.94S
VERNAL         PTCLDY    50  42  74 NW5       29.94S
WENDOVER       MOCLDY    54  45  71 NE9       29.97R
HEBER CITY     LGT RAIN  46  45  93 E3        29.98S
WEST JORDAN    PTCLDY    50  48  93 CALM      29.96S

$$

UTZ012>022-026-027-010500-

SOUTHERN UTAH

CITY           SKY/WX    TMP DP  RH WIND       PRES   REMARKS
BRYCE CANYON   CLEAR     39  33  79 W9        30.05S WCI  33
CEDAR CITY     CLEAR     53  39  59 SW6       29.95R
MILFORD        PTCLDY    56  42  59 SW10      29.89R
MOAB/CYNLANDS  CLEAR     56  47  71 CALM      29.88S
PRICE          CLOUDY    54  41  61 CALM      29.95S
ST GEORGE      CLOUDY    66  37  34 SE7       29.85R
KANAB            N/A     54  41  62 NE3       29.97R

$$

REGIONAL REPORTS     COLORADO/ARIZONA

CITY           SKY/WX    TMP DP  RH WIND       PRES   REMARKS
CRAIG, CO      CLOUDY    48  42  80 NE5       29.99S
GRAND JUNCTION PTCLDY    50  46  86 NE3       29.93S
RIFLE          PTCLDY    46  40  79 E6        29.98S
MONTROSE       CLEAR     47  43  86 S7        30.00S
CORTEZ         CLEAR     46  42  86 NE7       30.00R
PAGE, AZ       NOT AVBL
GRAND CANYON   PTCLDY    44  39  82 CALM      30.04S HAZE
KINGMAN        CLEAR     62  43  49 S9        29.88R
FLAGSTAFF      CLEAR     49  36  61 S6        30.08R

$$

REGIONAL REPORTS    NEVADA/IDAHO/WYOMING

CITY           SKY/WX    TMP DP  RH WIND       PRES   REMARKS
LAS VEGAS, NV  CLEAR     78  38  23 S10       29.73R
ELY            CLOUDY    55  30  38 N7        29.99R
ELKO           PTCLDY    50  31  48 N8        30.03R
POCATELLO, ID  CLEAR     47  35  63 S15       29.98R
BURLEY         CLEAR     48  33  56 SW14G23   29.98R
EVANSTON, WY   MOCLDY    39  36  89 SW6       30.01R WCI  35
ROCK SPRINGS   MOCLDY    41  37  86 SW17      29.97S

$$


USA.gov is the U.S. government's official web portal to all federal, state and local government web resources and services.